Regional Weather Roundup
Issued by NWS

Home | Current Version | Previous Version | Text Only | Print | Product List | Glossary On
Versions: 1 2 3 4 5 6 7 8 9 10 11 12 13 14 15 16 17 18 19 20 21 22 23 24 25 26 27 28
000
ASUS45 KSLC 252310
RWRUT

UTAH REGIONAL WEATHER ROUNDUP
NATIONAL WEATHER SERVICE SALT LAKE CITY UT
400 PM MST SAT FEB 25 2017

UTZ001>011-023>025-260000-

NORTHERN UTAH

CITY           SKY/WX    TMP DP  RH WIND       PRES   REMARKS
BRIGHAM CITY     N/A     29  24  79 N14       30.02R WCI  19
HILL AFB       SUNNY     27  21  77 S9        29.99F WCI  18
LOGAN          MOSUNNY   29  21  72 S3        30.00F
OGDEN          PTSUNNY   29  19  66 SW9       30.00F WCI  20
SALT LAKE CITY PTSUNNY   31  22  69 NE12      30.02S WCI  22
TOOELE VALLEY  PTSUNNY   32  25  74 NE10      30.02S WCI  24
WENDOVER       MOSUNNY   36  10  35 E3        30.01S
HEBER CITY     CLOUDY    25  14  63 CALM      29.94F
WEST JORDAN    CLOUDY    32  27  81 N7        30.01S WCI  26

$$

UTZ011>015-024>027-260000-

CENTRAL/NORTHEAST UTAH

CITY           SKY/WX    TMP DP  RH WIND       PRES   REMARKS
PROVO AIRPORT  MOSUNNY   30  16  56 S3        30.02F
MOAB/CANYONLAN CLOUDY    42   4  20 W12       29.91F
DELTA          MOSUNNY   32  18  55 CALM      29.99F
PRICE          MOSUNNY   31  14  49 VRB6      29.92F WCI  25
ROOSEVELT      SUNNY     30  19  64 NE6       29.95F WCI  24
VERNAL         SUNNY     26  14  60 NE6       29.93F WCI  19

$$

UTZ013>016-019>022-027-260000-

SOUTHERN UTAH

CITY           SKY/WX    TMP DP  RH WIND       PRES   REMARKS
BRYCE CANYON   CLOUDY    27  15  61 N5        29.91F WCI  22
CEDAR CITY     PTSUNNY   39  14  36 S14       29.91F WCI  31
MILFORD        CLOUDY    38  18  44 E5        29.94F WCI  34
HANKSVILLE     MOSUNNY   41   5  22 CALM      29.95F
BLANDING       MOSUNNY   38   6  26 SW9G18    29.99F WCI  31

$$

REGIONAL REPORTS     COLORADO/ARIZONA

CITY           SKY/WX    TMP DP  RH WIND       PRES   REMARKS
CRAIG, CO      CLOUDY    23   9  55 W15       29.88F WCI  10
GRAND JUNCTION MOSUNNY   36  10  34 CALM      29.92F
RIFLE, CO      CLOUDY    33  10  38 W15       29.90F WCI  23
MONTROSE, CO   CLOUDY    36   3  25 NW13      29.91F WCI  27
CORTEZ, CO     CLOUDY    37   6  27 W13       29.93F WCI  29
COLORADO CITY    N/A     46  16  29 NW8       29.97F
PAGE, AZ       SUNNY     47   5  18 NE5       29.92F
GRAND CANYON   PTSUNNY   39   8  27 W13       29.94F WCI  31
KINGMAN, AZ    PTSUNNY   53  -6   8 SW16      29.98S
FLAGSTAFF, AZ  MOSUNNY   39   8  27 SW18G24   29.95F WCI  30

$$

REGIONAL REPORTS    NEVADA/IDAHO/WYOMING

CITY           SKY/WX    TMP DP  RH WIND       PRES   REMARKS
LAS VEGAS, NV  CLOUDY    52  15  23 N5        29.97F
ELY, NY        CLOUDY    29  14  53 E6        29.94F WCI  23
ELKO, NV       MOSUNNY   34  11  38 W8        29.99F WCI  27
POCATELLO, ID  MOSUNNY   24  13  62 W16       30.00F WCI  11
BURLEY, ID     MIX PCPN  32  14  47 W14G20    30.00F WCI  22
FORT BRIDGER,    N/A     20  12  68 W21G30    29.88F WCI   5
EVANSTON, WY   LGT SNOW  17  10  74 W22       29.87S WCI   0
ROCK SPRINGS,  SUNNY     20  10  65 W24G35    29.82F WCI   3

$$




USA.gov is the U.S. government's official web portal to all federal, state and local government web resources and services.